Hit Tracker is now ESPN Home Run Tracker! Hit Tracker founder Greg Rybarczyk is now collaborating with the ESPN Stats & Information Group to continue tracking all MLB home runs, and helping baseball fans know "How Far It Really Went!™" Please credit any information on this site to ESPN Stats & Information Group. For more information and analysis on home runs, please contact founder Greg Rybarczyk. E-Mail ESPN Home Run Tracker
Main Page | Ballparks | Park Overlays | Glossary | Highlight Homers | Feedback | Bio | 3 Types of HR's | AAA Home Run Derby Last Updated: June 27, 2016, 3:05 pm PST
If you want to know "How Far It Really Went!", then you've come to the right place! Welcome to the ESPN Home Run Tracker, where you can find accurate, transparently verifiable distances for every home run hit in MLB games. Please also check out the ESPN MLB Scoreboard throughout the 2016 season! Contact us at grybar@hittrackeronline.com.
Season:
Ballpark detail for U.S. Cellular Field
Ballpark # of Home Runs HR per game Avg.
True
Distance
Avg.
Speed
Off
Bat
Avg.
Std.
Dist.
U.S. Cellular Field 83 2.24 388.6 102.4 387.5

Scatter Plot of Home Runs U.S. Cellular Field
 Overlay Ballpark:
Without range rings   With range rings

2016 Season Home Runs for U.S. Cellular Field
Click headers to sort
Date Video Path Hitter Hitter
Team
Pitcher Pitcher
Team
INN Ballpark ^ Type/
Luck
True
Dist.
Speed
Off
Bat
Elev.
Angle
Horiz.
Angle
Apex Impact Due To: Std.
Dist.
#
Parks
Wind Temp. Alt.
04/19/16 Video View Frazier, Todd CHW Shoemaker, Matt LAA 2 U.S. Cellula... PL 387 107.0 23.9 112.9 67 -2 -1 1 390 30
04/08/16 Video View Frazier, Todd CHW Salazar, Danny CLE 4 U.S. Cellula... PL 386 101.0 31.5 113.5 97 5 -7 -5 385 30
04/09/16 Video View Abreu, Jose CHW Anderson, Cody CLE 3 U.S. Cellula... PL 404 108.2 22.0 103.7 65 3 -2 0 403 28
04/09/16 Video View Napoli, Mike CLE Sale, Chris CHW 6 U.S. Cellula... PL 421 103.8 27.0 94.3 99 0 -4 1 423 28
04/09/16 Video View Gomes, Yan CLE Sale, Chris CHW 7 U.S. Cellula... JE 349 96.3 29.7 117.5 78 -1 -4 1 352 12
04/09/16 Video View Garcia, Avisail CHW Shaw, Bryan CLE 7 U.S. Cellula... JE/L 368 98.7 26.0 73.5 70 0 -2 1 369 10
04/19/16 Video View Abreu, Jose CHW Shoemaker, Matt LAA 4 U.S. Cellula... JE 411 102.1 26.6 96.5 92 2 -2 1 410 18
04/20/16 Video View Saladino, Tyler CHW Richards, Garrett LAA 1 U.S. Cellula... PL 372 102.4 26.4 118.4 68 0 0 1 371 29
04/21/16 Video View Trout, Mike LAA Danks, John CHW 5 U.S. Cellula... PL 425 105.2 27.4 99.4 97 0 0 1 424 30
04/21/16 Video View Cabrera, Melky CHW Weaver, Jered LAA 7 U.S. Cellula... ND 417 108.0 25.3 72.2 79 0 -1 1 416 30
04/21/16 Video View Frazier, Todd CHW Street, Huston LAA 9 U.S. Cellula... PL 404 101.2 28.0 79.3 89 2 0 1 401 26
04/23/16 Video View Cabrera, Melky CHW Lewis, Colby TEX 2 U.S. Cellula... PL 400 103.2 25.5 77.1 78 0 -1 1 401 28
04/23/16 Video View Desmond, Ian TEX Rodon, Carlos CHW 2 U.S. Cellula... JE 416 104.5 23.2 88.5 77 1 0 1 416 21
04/23/16 Video View Frazier, Todd CHW Dyson, Sam TEX 8 U.S. Cellula... PL 366 98.6 29.5 114.8 83 -1 -2 1 368 24
04/24/16 Video View Mazara, Nomar TEX Latos, Mat CHW 1 U.S. Cellula... ND 435 110.7 25.3 75.3 90 -5 1 1 438 30
04/24/16 Video View Navarro, Dioner CHW Holland, Derek TEX 3 U.S. Cellula... PL 384 97.9 34.3 106.6 111 9 1 2 372 22
05/03/16 Video View Ramirez, Hanley BOS Quintana, Jose CHW 5 U.S. Cellula... PL 386 103.1 26.4 67.4 75 1 -1 1 385 28
05/04/16 Video View Abreu, Jose CHW Buchholz, Clay BOS 1 U.S. Cellula... ND 399 105.7 32.9 115.3 120 1 -6 2 402 30
05/04/16 Video View Ortiz, David BOS Rodon, Carlos CHW 5 U.S. Cellula... PL 410 101.7 29.5 77.1 93 10 -4 1 402 29
05/05/16 Video View Pedroia, Dustin BOS Johnson, Erik CHW 1 U.S. Cellula... PL 345 96.4 34.9 115.5 109 -9 -3 2 355 20
05/05/16 Video View Ramirez, Hanley BOS Johnson, Erik CHW 3 U.S. Cellula... JE 377 101.7 25.0 71.7 68 0 -1 1 377 19
05/05/16 Video View Garcia, Avisail CHW Owens, Henry BOS 4 U.S. Cellula... JE 368 111.1 19.8 114.1 46 0 -1 0 369 10
05/05/16 Video View Bradley Jr., Jackie BOS Albers, Matt CHW 6 U.S. Cellula... JE 381 101.3 24.4 103.7 68 0 -1 0 382 10
05/06/16 Video View Abreu, Jose CHW Nolasco, Ricky MIN 3 U.S. Cellula... PL 407 102.9 31.8 105.5 113 0 1 2 403 30
05/06/16 Video View Arcia, Oswaldo MIN Latos, Mat CHW 4 U.S. Cellula... PL 398 103.8 26.4 108.5 77 1 0 1 396 30
05/07/16 Video View Frazier, Todd CHW Santana, Ervin MIN 3 U.S. Cellula... ND 385 105.8 27.2 124.5 73 0 -1 1 385 30
05/17/16 Video View White, Tyler HOU Rodon, Carlos CHW 4 U.S. Cellula... JE 390 100.7 25.8 101.5 79 0 -1 1 390 11
05/17/16 Video View Abreu, Jose CHW Keuchel, Dallas HOU 4 U.S. Cellula... PL 430 106.2 24.0 87.7 84 0 -1 0 430 27
05/17/16 Video View White, Tyler HOU Rodon, Carlos CHW 6 U.S. Cellula... JE 378 101.1 24.6 104.6 68 0 -1 0 379 9
05/17/16 Video View Gattis, Evan HOU Albers, Matt CHW 11 U.S. Cellula... PL 371 107.0 22.9 120.0 55 1 -1 0 370 24
05/18/16 Video View Rasmus, Colby HOU Latos, Mat CHW 5 U.S. Cellula... ND 412 105.2 29.3 72.7 101 0 -3 2 413 30
05/18/16 Video View Castro, Jason HOU Latos, Mat CHW 6 U.S. Cellula... ND 408 108.8 27.5 60.3 83 0 -2 1 409 30
05/19/16 Video View Gattis, Evan HOU Sale, Chris CHW 8 U.S. Cellula... PL 398 100.7 28.2 100.9 92 0 -1 1 398 26
05/21/16 Video View Cain, Lorenzo KC Gonzalez, Miguel CHW 6 U.S. Cellula... PL 414 103.6 24.7 95.7 79 1 0 1 413 21
05/22/16 Video View Frazier, Todd CHW Ventura, Yordano KC 4 U.S. Cellula... JE 345 93.9 33.4 62.3 90 0 0 1 344 13
05/23/16 Video View Frazier, Todd CHW Clevinger, Mike CLE 1 U.S. Cellula... ND 402 104.4 31.7 111.1 111 -5 1 2 403 30
05/23/16 Video View Napoli, Mike CLE Latos, Mat CHW 2 U.S. Cellula... PL 352 96.1 34.2 112.9 106 -8 1 2 357 15
05/23/16 Video View Byrd, Marlon CLE Latos, Mat CHW 5 U.S. Cellula... JE 409 105.4 22.0 84.5 68 1 1 0 408 14
05/23/16 Video View Lawrie, Brett CHW Clevinger, Mike CLE 5 U.S. Cellula... ND 415 104.6 29.3 104.9 103 -1 1 2 414 30
05/23/16 Video View Ramirez, Jose CLE Albers, Matt CHW 8 U.S. Cellula... PL 401 100.6 28.5 79.6 93 0 1 1 399 26
05/23/16 Video View Ramirez, Jose CLE Johnson, Erik CHW 2 U.S. Cellula... PL 392 106.6 23.1 71.4 63 0 0 0 391 28
05/23/16 Video View Davis, Rajai CLE Johnson, Erik CHW 5 U.S. Cellula... PL 376 100.0 35.6 107.7 127 0 -1 3 374 24
05/23/16 Video View Uribe, Juan CLE Johnson, Erik CHW 7 U.S. Cellula... PL 416 102.6 29.3 97.1 105 0 -1 1 415 30
05/24/16 Video View Eaton, Adam CHW Tomlin, Josh CLE 1 U.S. Cellula... PL 400 103.8 24.3 77.6 73 1 1 1 398 25
05/24/16 Video View Gimenez, Chris CLE Sale, Chris CHW 4 U.S. Cellula... ND 413 106.0 29.3 111.3 97 -3 2 1 411 30
05/25/16 Video View Cabrera, Melky CHW Shaw, Bryan CLE 8 U.S. Cellula... PL 384 107.2 24.5 59.0 63 0 1 1 382 30
06/07/16 Video View Frazier, Todd CHW Ross, Joe WSH 2 U.S. Cellula... JE 419 104.3 24.3 87.8 82 0 0 1 419 25
06/07/16 Video View Rendon, Anthony WSH Latos, Mat CHW 4 U.S. Cellula... JE 377 100.6 24.6 104.3 67 0 0 1 377 6
06/08/16 Video View Zimmerman, Ryan WSH Shields, James CHW 1 U.S. Cellula... ND 396 110.8 22.9 116.1 61 0 -1 1 396 30
06/08/16 Video View Drew, Stephen WSH Shields, James CHW 2 U.S. Cellula... PL 361 97.0 33.2 68.1 103 -4 -2 2 365 24
06/08/16 Video View Espinosa, Danny WSH Shields, James CHW 2 U.S. Cellula... ND 391 104.5 30.1 58.9 90 0 -2 1 391 30
06/08/16 Video View Werth, Jayson WSH Robertson, David CHW 8 U.S. Cellula... PL 373 99.6 28.8 113.0 81 0 -1 1 374 28
06/09/16 Video View Murphy, Daniel WSH Gonzalez, Miguel CHW 5 U.S. Cellula... PL 379 101.2 36.4 73.9 136 0 -1 3 377 26
06/10/16 Video View Hosmer, Eric KC Sale, Chris CHW 1 U.S. Cellula... PL 359 100.8 25.9 120.8 62 0 2 1 357 13
06/10/16 Video View Cabrera, Melky CHW Kennedy, Ian KC 3 U.S. Cellula... PL 423 104.4 25.1 85.6 84 0 2 1 421 24
06/10/16 Video View Hosmer, Eric KC Sale, Chris CHW 4 U.S. Cellula... JE 363 96.9 28.7 111.6 76 0 1 1 361 11
06/10/16 Video View Lawrie, Brett CHW Kennedy, Ian KC 4 U.S. Cellula... PL 385 104.0 37.1 113.7 138 0 6 4 375 30
06/10/16 Video View Avila, Alex CHW Kennedy, Ian KC 4 U.S. Cellula... PL 377 97.9 34.9 105.2 118 -1 4 2 372 17
06/10/16 Video View Perez, Salvador KC Sale, Chris CHW 6 U.S. Cellula... PL 412 101.0 30.0 94.9 105 0 3 1 408 21
06/10/16 Video View Avila, Alex CHW Kennedy, Ian KC 6 U.S. Cellula... JE 369 110.4 20.6 60.9 47 1 1 2 367 15
06/11/16 Video View Cuthbert, Cheslor KC Quintana, Jose CHW 3 U.S. Cellula... JE 357 95.2 30.3 64.3 77 4 2 1 350 9
06/11/16 Video View Morales, Kendrys KC Quintana, Jose CHW 5 U.S. Cellula... JE 368 97.9 27.2 68.5 67 5 1 1 361 3
06/11/16 Video View Cuthbert, Cheslor KC Quintana, Jose CHW 8 U.S. Cellula... JE/L 394 97.9 30.4 99.1 96 3 3 1 387 4
06/12/16 Video View Abreu, Jose CHW Ventura, Yordano KC 6 U.S. Cellula... PL 435 106.5 24.4 91.4 86 0 0 0 434 28
06/12/16 Video View Perez, Salvador KC Putnam, Zach CHW 9 U.S. Cellula... PL 364 108.2 22.4 127.6 52 0 0 0 364 28
06/13/16 Video View Kinsler, Ian DET Shields, James CHW 1 U.S. Cellula... JE 380 101.6 24.6 105.7 67 0 0 0 380 13
06/13/16 Video View Abreu, Jose CHW Boyd, Matt DET 3 U.S. Cellula... PL 419 105.4 24.0 97.6 76 1 0 1 417 26
06/13/16 Video View Navarro, Dioner CHW Boyd, Matt DET 4 U.S. Cellula... PL 387 101.0 33.4 109.6 114 0 0 2 385 30
06/14/16 Video View Saladino, Tyler CHW Lowe, Mark DET 9 U.S. Cellula... PL 377 102.5 28.0 118.9 77 -3 0 1 378 30
06/15/16 Video View Iglesias, Jose DET Sale, Chris CHW 3 U.S. Cellula... PL 368 97.3 29.8 68.5 84 0 1 1 366 21
06/24/16 Video View Cabrera, Melky CHW Sanchez, Aaron TOR 5 U.S. Cellula... PL 358 95.6 34.0 67.5 102 0 0 2 356 15
06/25/16 Video View Travis, Devon TOR Gonzalez, Miguel CHW 2 U.S. Cellula... PL 409 102.6 29.1 99.8 105 -7 3 2 411 30
06/25/16 Video View Navarro, Dioner CHW Dickey, R.A. TOR 2 U.S. Cellula... JE 354 106.2 22.2 54.0 50 0 1 1 353 16
06/25/16 Video View Shuck, J.B. CHW Dickey, R.A. TOR 2 U.S. Cellula... PL 412 105.5 24.1 79.0 75 0 1 0 410 28
06/25/16 Video View Lawrie, Brett CHW Dickey, R.A. TOR 2 U.S. Cellula... ITP/L 393 98.9 32.4 96.4 116 -5 4 2 392 7
06/25/16 Video View Lawrie, Brett CHW Dickey, R.A. TOR 4 U.S. Cellula... PL 371 98.1 28.7 109.8 81 -3 2 1 370 20
06/25/16 Video View Anderson, Tim CHW Storen, Drew TOR 7 U.S. Cellula... PL 360 96.6 35.3 108.9 115 -8 5 2 360 13
06/25/16 Video View Avila, Alex CHW Grilli, Jason TOR 8 U.S. Cellula... PL 364 96.8 31.4 114.6 89 -3 3 1 362 23
06/25/16 Video View Eaton, Adam CHW Osuna, Roberto TOR 9 U.S. Cellula... JE 395 106.9 20.9 100.4 58 0 0 0 394 12
06/26/16 Video View Anderson, Tim CHW Stroman, Marcus TOR 5 U.S. Cellula... JE 368 98.5 26.2 108.1 68 1 1 1 366 2
06/26/16 Video View Tulowitzki, Troy TOR Sale, Chris CHW 8 U.S. Cellula... JE 344 95.5 28.9 123.6 66 3 2 1 339 3
06/26/16 Video View Lake, Junior TOR Sale, Chris CHW 8 U.S. Cellula... JE 417 109.1 20.2 84.8 60 -1 0 0 418 21
06/26/16 Video View Shuck, J.B. CHW Schultz, Bo TOR 8 U.S. Cellula... PL 367 98.4 29.8 59.5 76 4 2 1 360 25


About HitTracker | Contact Us
© 2006-2016 HitTrackerOnline